Weather History for PAGY - November, 2010

Change the Weather History Date:

Sunday, November 21, 2010

  Actual Average Record
Temperature  
Mean Temperature 36 °F -  
Max Temperature 39 °F 35 °F 50 °F (2005)
Min Temperature 33 °F 28 °F 5 °F (1993)
Degree Days  
Heating Degree Days 28    
Moisture  
Dew Point 22 °F    
Average Humidity 55    
Maximum Humidity 64    
Minimum Humidity 46    
Precipitation  
Precipitation 0.00 in - - ()
Sea Level Pressure  
Sea Level Pressure 30.21 in    
Wind  
Wind Speed 6 mph (NNE)    
Max Wind Speed 16 mph    
Max Gust Speed 31 mph    
Visibility 10 miles    
Events      
Averages and records for this station are not official NWS values.
T = Trace of Precipitation, MM = Missing Value Source: NWS Daily Summary

Daily Weather History Graph

Daily Weather History Graph

Search for Another Location

Airport or City:

Trip Planner

Search our weather history database for the weather conditions in past years. The results will help you decide how hot, cold, wet, or windy it might be!

Date:

Astronomy

Nov. 21, 2010 Rise Set
Actual Time 8:10 AM AKST 3:23 PM AKST
Civil Twilight 7:20 AM AKST 4:12 PM AKST
Nautical Twilight 6:28 AM AKST 5:04 PM AKST
Astronomical Twilight 5:40 AM AKST 5:53 PM AKST
Moon 2:51 PM AKST (11/21) 8:45 AM AKST (11/21)
Length of Visible Light 8h 52m
Length of Day
7h 12m
Full, 100% of the Moon is Illuminated
Nov 21
Full
Nov 28
Last Quarter
Dec 5
New
Dec 13
First Quarter
Dec 20
Full

Hourly Weather History & Observations

Time (AKST) Temp. Windchill Dew Point Humidity Pressure Visibility Wind Dir Wind Speed Gust Speed Precip Events Conditions
12:53 AM 37.0 °F 29.8 °F 21.0 °F 52% 30.21 in 10.0 mi NNE 10.4 mph 20.7 mph N/A   Overcast
1:53 AM 37.0 °F 34.5 °F 21.9 °F 54% 30.22 in 10.0 mi NNW 3.5 mph - N/A   Overcast
2:53 AM 37.0 °F 30.4 °F 21.9 °F 54% 30.21 in 10.0 mi NNE 9.2 mph - N/A   Overcast
3:53 AM 37.0 °F 32.4 °F 21.9 °F 54% 30.21 in 10.0 mi Variable 5.8 mph - N/A   Overcast
4:53 AM 36.0 °F - 23.0 °F 59% 30.20 in 10.0 mi Calm Calm - N/A   Overcast
5:53 AM 37.0 °F 34.5 °F 23.0 °F 57% 30.20 in 10.0 mi Variable 3.5 mph - N/A   Overcast
6:53 AM 35.1 °F - 24.1 °F 64% 30.20 in 10.0 mi Calm Calm - N/A   Overcast
7:53 AM 35.1 °F - 24.1 °F 64% 30.19 in 10.0 mi Calm Calm - N/A   Overcast
8:53 AM 34.0 °F - 23.0 °F 64% 30.19 in 10.0 mi Calm Calm - N/A   Overcast
9:53 AM 36.0 °F - 24.1 °F 62% 30.18 in 10.0 mi Calm Calm - N/A   Overcast
10:53 AM 39.0 °F 32.8 °F 21.0 °F 49% 30.17 in 10.0 mi NNE 9.2 mph - N/A   Overcast
11:53 AM 39.0 °F 36.8 °F 21.9 °F 50% 30.17 in 10.0 mi NNE 3.5 mph - N/A   Overcast
12:53 PM 39.0 °F - 21.9 °F 50% 30.16 in 10.0 mi Calm Calm - N/A   Overcast
1:53 PM 37.9 °F - 23.0 °F 55% 30.17 in 10.0 mi Calm Calm - N/A   Mostly Cloudy
2:53 PM 37.9 °F 32.1 °F 21.9 °F 53% 30.16 in 10.0 mi NE 8.1 mph - N/A   Overcast
3:53 PM 37.0 °F 32.4 °F 24.1 °F 59% 30.17 in 10.0 mi NNE 5.8 mph - N/A   Mostly Cloudy
4:53 PM 37.0 °F - 23.0 °F 57% 30.17 in 10.0 mi Calm Calm - N/A   Overcast
5:53 PM 37.9 °F 32.1 °F 23.0 °F 55% 30.18 in 10.0 mi NNE 8.1 mph 26.5 mph N/A   Mostly Cloudy
6:53 PM 37.9 °F 30.5 °F 21.9 °F 53% 30.19 in 10.0 mi NNE 11.5 mph 20.7 mph N/A   Overcast
7:53 PM 37.9 °F 28.9 °F 21.0 °F 51% 30.21 in 10.0 mi NNE 16.1 mph 24.2 mph N/A   Overcast
8:53 PM 37.0 °F 27.7 °F 21.0 °F 52% 30.23 in 10.0 mi NNE 16.1 mph 26.5 mph N/A   Overcast
9:53 PM 37.0 °F 28.9 °F 19.0 °F 48% 30.27 in 10.0 mi NNE 12.7 mph - N/A   Overcast
10:53 PM 35.1 °F 25.2 °F 17.1 °F 48% 30.32 in 10.0 mi NNE 16.1 mph 26.5 mph N/A   Overcast
11:53 PM 33.1 °F 22.6 °F 14.0 °F 46% 30.36 in 10.0 mi NNE 16.1 mph 31.1 mph N/A   Scattered Clouds